Showing default

UWE-3, 39446

Orbit data source: Space-Track

UWE-3, 39446 is a payload satellite owned by U Wurzburg (DE) in SSO that was launched on Thu, 21 Nov 2013 UTC via a DNEPR launch vehicle from the Orenburg, Russia (OREN). Payload-class satellites include a variety of spacecraft equipped with specific instruments for various scientific and technological missions. These include communications satellites like Starlink; space stations such as the ISS; scientific satellites like the Hubble; Earth observation satellites from companies like Planet Labs, Umbra, and HawkEye 360; GPS; miniature CubeSats for education and research; and military/defense satellites.

Loading next visibility...
Identifier
39446, 2013-066AG
Orbit
SSO
Country
Flag of DEDE / GER
Related business
Manufacturer
U Wurzburg
Mission
Operational Amateur Technology
Bus & Motor
CUBESAT 1U, Unknown motor
Mass
1 kg wet, 1 kg dry
Launch date (UTC)
2013-11-21 (12 years ago)
Launch vehicle
DNEPR
Launch site
Orenburg, Russia (OREN)
Object type
Payload
Rocket body
Debris
Shape & HBR
Box, 0.1 m
Radar Cross Section
0.015 m², Small (<0.1 m²)

Expand to show TLE details & history
Last TLE update: 12 hours ago

TLE from 12 hours ago
0 UWE-3
1 39446U 13066AG  25300.36337709  .00007107  00000-0  64817-3 0  9994
2 39446  97.8411 250.7270 0052570  17.3448 342.9552 14.94352151642778
Epoch: 2025-10-27T08:43Z
TLE epoch observation values (Epoch: 2025-10-27T08:43:15.780Z)
Latitude
-0.00007°
Longitude
83.94497°
Altitude
552.442 km
Speed
7.605 km/s
True Right ascension
16h 42m 54s
True Declination
0° 00' 00"
Sunlit
Object was in daylight at epoch
Visualization orbit readout
Latitude
Unknown
Longitude
Unknown
Altitude
Unknown
Speed
Unknown
Apparent Right ascension
Unknown
Apparent Declination
Unknown
Sunlit
N/A
Visualization observer readout
Local Sidereal Time
15:46:14
Azimuth
Unknown
Elevation
Unknown
Doppler factor
Unknown
Orbital elements
Apogee altitude
617.99 km
Perigee altitude
544.817 km
Semi-major axis
6,959.54 km
Eccentricity
0.00526
Inclination
97.8411°
RAAN
250.727°
Arg. of periapsis
17.3448°
True anomaly
342.77751°
Mean anomaly
342.9552°
Eccentric anomaly
342.86647°
Mean motion
3.73828 °/min
Orbital period
96.3 mins
BSTAR
0.00064817
Loading maneuver chart data...
Computing Atmospheric mass density...
Loading historical data...
Loading historical data...
Loading historical data...
Loading historical data...
Loading historical data...
Loading historical data...
Loading historical data...

Documentation

Showing up to 5 results
|